Simultaneous Nadir Overpasses (SNOs) Predictions

Prediction of SNOs near US between AQUA and NPP Satellite Orbit:

Table of predicted SNOs near US for the next 10.0 days since TLE Epoch: 9/9/2016
Index Date (AQUA) Time (AQUA) AQUA Lat,Lon Date (NPP) Time (NPP) NPP Lat,Lon Distance(km) Time Diff (sec)
1 09/10/2016 08:34:38 20.05,-101.88 09/10/2016 08:26:18 19.90,-101.97 18.66 500
2 09/10/2016 10:11:03 28.97,-124.43 09/10/2016 10:05:11 29.09,-124.98 55.61 352
3 09/13/2016 07:18:19 49.91, -76.00 09/13/2016 07:20:27 50.33, -78.07 155.01 128
4 09/13/2016 08:57:12 49.91,-100.72 09/13/2016 09:01:55 50.43,-103.40 199.49 283
5 09/15/2016 18:16:27 49.94, -80.16 09/15/2016 18:10:41 49.66, -81.59 107.66 346
6 09/15/2016 19:55:21 50.00,-104.90 09/15/2016 19:52:11 49.66,-106.97 152.79 190
7 09/15/2016 21:30:31 36.71,-124.99 09/15/2016 21:29:49 36.23,-127.44 225.33 42
8 09/18/2016 09:22:52 24.23,-113.24 09/18/2016 09:15:42 24.28,-113.54 30.62 430




NCC Satellite Simultaneous Nadir Overpasses (SNOs) Prediction Service
